Terminal Aerodrome Forecast
Issued by NWS

Home | Current Version | Previous Version | Text Only | Print | Product List | Glossary On
Versions: 1 2 3 4 5 6 7 8 9 10 11 12 13 14 15 16 17 18
000
FTUS46 KSEW 010500
TAFHQM
TAF
KHQM 010525Z 0106/0206 06012KT P6SM SCT050 OVC100
     FM011200 11010KT 5SM -RA BR SCT030 OVC050
     FM011800 17013KT 4SM -RA BR SCT015 OVC030
     FM012000 20013KT 4SM -RA BR OVC015=

USA.gov is the U.S. government's official web portal to all federal, state and local government web resources and services.